DAL9390 KFLL-KRDU

Flight info

Callsign DAL9390
Flight time 1h 51m
Altitude 39000
Route AGERS1 DUCEN Q87 VIYAP Q69 GURGE PETTO DMSTR2
Aircraft A339/H-SADE1E2E3GHIJ3J5M1P2RWXY/LB2D1

Departure

Time 2026-05-04 00:44
Airport Fort Lauderdale Hollywood International Airport (KFLL)

Arrival

Time 2026-05-04 02:35
Airport Raleigh-Durham International Airport (KRDU)
Time Latitude Longitude Altitude Speed Heading
2026-05-03 23:33 26.07381 -80.14745 20 ft 0 kts 149°
2026-05-03 23:53 26.07387 -80.14749 20 ft 2 kts 154°
2026-05-03 23:54 26.07401 -80.14754 20 ft 2 kts 169°
2026-05-03 23:54 26.07416 -80.14756 20 ft 2 kts 180°
2026-05-03 23:54 26.07431 -80.14755 20 ft 2 kts 192°
2026-05-03 23:54 26.07445 -80.14751 20 ft 2 kts 204°
2026-05-03 23:55 26.07458 -80.14743 20 ft 2 kts 216°
2026-05-03 23:55 26.07469 -80.14732 20 ft 2 kts 227°
2026-05-03 23:55 26.07478 -80.14719 20 ft 2 kts 239°
2026-05-03 23:55 26.07485 -80.14704 20 ft 2 kts 251°
2026-05-03 23:56 26.07489 -80.14689 20 ft 2 kts 263°
2026-05-03 23:56 26.07490 -80.14682 20 ft 0 kts 266°
2026-05-03 23:56 26.07489 -80.14682 20 ft 0 kts 266°
2026-05-03 23:57 26.07489 -80.14701 20 ft 5 kts 267°
2026-05-03 23:58 26.07487 -80.14751 20 ft 7 kts 269°
2026-05-03 23:58 26.07487 -80.14822 20 ft 10 kts 271°
2026-05-03 23:58 26.07489 -80.14912 20 ft 12 kts 271°
2026-05-03 23:58 26.07490 -80.15011 20 ft 13 kts 270°
2026-05-03 23:59 26.07491 -80.15118 20 ft 14 kts 271°
2026-05-03 23:59 26.07492 -80.15192 20 ft 2 kts 268°
2026-05-03 23:59 26.07491 -80.15221 20 ft 4 kts 269°
2026-05-03 23:59 26.07491 -80.15267 20 ft 7 kts 270°
2026-05-04 00:00 26.07491 -80.15328 20 ft 8 kts 270°
2026-05-04 00:00 26.07492 -80.15359 20 ft 0 kts 271°
2026-05-04 00:00 26.07492 -80.15366 20 ft 2 kts 270°
2026-05-04 00:00 26.07492 -80.15376 20 ft 0 kts 270°
2026-05-04 00:05 26.07492 -80.15387 20 ft 3 kts 271°
2026-05-04 00:05 26.07492 -80.15422 20 ft 5 kts 271°
2026-05-04 00:06 26.07493 -80.15467 20 ft 6 kts 271°
2026-05-04 00:06 26.07493 -80.15514 20 ft 3 kts 270°
2026-05-04 00:07 26.07493 -80.15516 20 ft 0 kts 270°
2026-05-04 00:08 26.07493 -80.15524 20 ft 1 kts 270°
2026-05-04 00:08 26.07493 -80.15538 20 ft 2 kts 271°
2026-05-04 00:08 26.07493 -80.15558 20 ft 2 kts 270°
2026-05-04 00:08 26.07493 -80.15560 20 ft 0 kts 270°
2026-05-04 00:09 26.07493 -80.15570 20 ft 4 kts 271°
2026-05-04 00:09 26.07494 -80.15608 20 ft 5 kts 270°
2026-05-04 00:09 26.07493 -80.15647 20 ft 3 kts 269°
2026-05-04 00:10 26.07493 -80.15674 20 ft 3 kts 270°
2026-05-04 00:10 26.07493 -80.15705 20 ft 4 kts 270°
2026-05-04 00:10 26.07494 -80.15742 20 ft 5 kts 271°
2026-05-04 00:10 26.07494 -80.15765 20 ft 0 kts 271°
2026-05-04 00:15 26.07494 -80.15768 20 ft 0 kts 271°
2026-05-04 00:16 26.07494 -80.15776 20 ft 1 kts 271°
2026-05-04 00:16 26.07494 -80.15788 20 ft 1 kts 271°
2026-05-04 00:16 26.07494 -80.15804 20 ft 2 kts 270°
2026-05-04 00:16 26.07494 -80.15825 20 ft 2 kts 270°
2026-05-04 00:17 26.07494 -80.15844 20 ft 0 kts 270°
2026-05-04 00:21 26.07494 -80.15845 20 ft 0 kts 270°
2026-05-04 00:21 26.07494 -80.15848 20 ft 0 kts 270°
2026-05-04 00:21 26.07494 -80.15858 20 ft 1 kts 270°
2026-05-04 00:21 26.07494 -80.15873 20 ft 2 kts 270°
2026-05-04 00:22 26.07494 -80.15893 20 ft 2 kts 270°
2026-05-04 00:22 26.07494 -80.15918 20 ft 2 kts 270°
2026-05-04 00:22 26.07494 -80.15919 20 ft 0 kts 270°
2026-05-04 00:23 26.07494 -80.15920 20 ft 0 kts 270°
2026-05-04 00:23 26.07494 -80.15926 20 ft 1 kts 270°
2026-05-04 00:24 26.07494 -80.15937 20 ft 1 kts 270°
2026-05-04 00:24 26.07494 -80.15953 20 ft 2 kts 269°
2026-05-04 00:24 26.07494 -80.15974 20 ft 3 kts 271°
2026-05-04 00:24 26.07494 -80.15985 20 ft 0 kts 271°
2026-05-04 00:25 26.07494 -80.15987 20 ft 1 kts 271°
2026-05-04 00:25 26.07495 -80.16007 20 ft 3 kts 271°
2026-05-04 00:26 26.07495 -80.16043 20 ft 5 kts 271°
2026-05-04 00:26 26.07496 -80.16088 20 ft 0 kts 271°
2026-05-04 00:26 26.07496 -80.16092 20 ft 1 kts 271°
2026-05-04 00:26 26.07496 -80.16113 20 ft 3 kts 270°
2026-05-04 00:27 26.07496 -80.16152 20 ft 6 kts 270°
2026-05-04 00:27 26.07496 -80.16182 20 ft 0 kts 270°
2026-05-04 00:29 26.07496 -80.16187 20 ft 1 kts 270°
2026-05-04 00:29 26.07496 -80.16209 20 ft 4 kts 270°
2026-05-04 00:29 26.07497 -80.16249 20 ft 6 kts 270°
2026-05-04 00:29 26.07497 -80.16305 20 ft 5 kts 270°
2026-05-04 00:30 26.07497 -80.16309 20 ft 0 kts 270°
2026-05-04 00:31 26.07497 -80.16312 20 ft 1 kts 270°
2026-05-04 00:31 26.07497 -80.16332 20 ft 3 kts 270°
2026-05-04 00:31 26.07497 -80.16351 20 ft 0 kts 270°
2026-05-04 00:32 26.07497 -80.16363 20 ft 2 kts 270°
2026-05-04 00:32 26.07497 -80.16389 20 ft 0 kts 270°
2026-05-04 00:33 26.07497 -80.16397 20 ft 2 kts 270°
2026-05-04 00:34 26.07498 -80.16423 20 ft 4 kts 270°
2026-05-04 00:34 26.07497 -80.16459 20 ft 0 kts 270°
2026-05-04 00:34 26.07497 -80.16467 20 ft 2 kts 270°
2026-05-04 00:35 26.07497 -80.16494 20 ft 4 kts 270°
2026-05-04 00:35 26.07498 -80.16538 20 ft 4 kts 271°
2026-05-04 00:35 26.07498 -80.16541 20 ft 0 kts 271°
2026-05-04 00:37 26.07498 -80.16547 20 ft 1 kts 271°
2026-05-04 00:37 26.07498 -80.16571 20 ft 4 kts 271°
2026-05-04 00:37 26.07498 -80.16579 20 ft 0 kts 271°
2026-05-04 00:38 26.07498 -80.16588 20 ft 2 kts 271°
2026-05-04 00:38 26.07499 -80.16606 20 ft 0 kts 282°
2026-05-04 00:39 26.07501 -80.16608 20 ft 0 kts 296°
2026-05-04 00:39 26.07511 -80.16625 20 ft 3 kts 304°
2026-05-04 00:39 26.07531 -80.16637 20 ft 2 kts 346°
2026-05-04 00:40 26.07536 -80.16638 20 ft 1 kts 348°
2026-05-04 00:41 26.07555 -80.16641 20 ft 3 kts 355°
2026-05-04 00:41 26.07586 -80.16642 20 ft 0 kts 359°
2026-05-04 00:42 26.07622 -80.16643 20 ft 7 kts 359°
2026-05-04 00:42 26.07669 -80.16627 20 ft 6 kts 49°
2026-05-04 00:42 26.07689 -80.16579 20 ft 7 kts 79°
2026-05-04 00:43 26.07690 -80.16568 20 ft 0 kts 82°
2026-05-04 00:43 26.07695 -80.16493 20 ft 41 kts 88°
2026-05-04 00:43 26.07692 -80.15871 20 ft 117 kts 90°
2026-05-04 00:43 26.07686 -80.14712 39 ft 177 kts 88°
2026-05-04 00:44 26.07684 -80.13238 295 ft 202 kts 90°
2026-05-04 00:44 26.07679 -80.11598 758 ft 220 kts 88°
2026-05-04 00:44 26.07730 -80.09856 1300 ft 235 kts 83°
2026-05-04 00:44 26.08267 -80.08117 1829 ft 248 kts 51°
2026-05-04 00:45 26.09564 -80.06894 2620 ft 250 kts 26°
2026-05-04 00:45 26.11198 -80.06181 3367 ft 253 kts 18°
2026-05-04 00:45 26.12881 -80.05544 3809 ft 256 kts 18°
2026-05-04 00:45 26.14575 -80.04947 3988 ft 261 kts 11°
2026-05-04 00:46 26.16406 -80.04939 3986 ft 262 kts 347°
2026-05-04 00:46 26.18141 -80.05544 3993 ft 262 kts 340°
2026-05-04 00:46 26.19875 -80.06246 3995 ft 263 kts 339°
2026-05-04 00:46 26.21563 -80.07027 3986 ft 262 kts 327°
2026-05-04 00:47 26.22828 -80.08457 3987 ft 261 kts 299°
2026-05-04 00:47 26.23540 -80.10304 3999 ft 261 kts 290°
2026-05-04 00:47 26.24179 -80.12191 3997 ft 260 kts 290°
2026-05-04 00:47 26.24828 -80.14082 4104 ft 266 kts 291°
2026-05-04 00:48 26.25824 -80.15834 4683 ft 275 kts 315°
2026-05-04 00:48 26.27382 -80.17021 5656 ft 271 kts 331°
2026-05-04 00:48 26.29038 -80.17958 6403 ft 273 kts 333°
2026-05-04 00:48 26.30761 -80.18904 7078 ft 276 kts 332°
2026-05-04 00:49 26.32487 -80.19861 7750 ft 280 kts 332°
2026-05-04 00:49 26.34228 -80.20835 8418 ft 282 kts 332°
2026-05-04 00:49 26.35970 -80.21817 9130 ft 285 kts 332°
2026-05-04 00:49 26.37837 -80.22629 9908 ft 289 kts 343°
2026-05-04 00:50 26.39800 -80.23047 10755 ft 292 kts 353°
2026-05-04 00:50 26.41814 -80.23272 11655 ft 294 kts 355°
2026-05-04 00:50 26.43871 -80.23463 12359 ft 296 kts 354°
2026-05-04 00:50 26.45929 -80.23649 12944 ft 301 kts 353°
2026-05-04 00:51 26.48034 -80.23850 13514 ft 307 kts 351°
2026-05-04 00:51 26.50167 -80.24061 14072 ft 313 kts 349°
2026-05-04 00:51 26.52360 -80.24284 14723 ft 318 kts 349°
2026-05-04 00:51 26.54563 -80.24516 15456 ft 320 kts 348°
2026-05-04 00:52 26.56786 -80.24786 16167 ft 321 kts 345°
2026-05-04 00:52 26.58972 -80.25138 16872 ft 323 kts 344°
2026-05-04 00:52 26.61204 -80.25514 17556 ft 325 kts 344°
2026-05-04 00:52 26.63454 -80.25893 18227 ft 329 kts 343°
2026-05-04 00:53 26.65742 -80.26279 18876 ft 333 kts 343°
2026-05-04 00:53 26.68018 -80.26661 19532 ft 336 kts 343°
2026-05-04 00:53 26.70296 -80.27159 20166 ft 334 kts 338°
2026-05-04 00:53 26.72536 -80.27881 20766 ft 333 kts 333°
2026-05-04 00:54 26.74720 -80.28764 21334 ft 336 kts 331°
2026-05-04 00:54 26.76919 -80.29689 21897 ft 340 kts 330°
2026-05-04 00:54 26.79131 -80.30619 22471 ft 343 kts 330°
2026-05-04 00:54 26.81375 -80.31564 23024 ft 346 kts 330°
2026-05-04 00:55 26.83635 -80.32511 23557 ft 350 kts 330°
2026-05-04 00:55 26.85921 -80.33469 24111 ft 353 kts 330°
2026-05-04 00:55 26.88250 -80.34444 24666 ft 356 kts 330°
2026-05-04 00:55 26.90570 -80.35417 25185 ft 360 kts 330°
2026-05-04 00:56 26.92932 -80.36407 25670 ft 364 kts 330°
2026-05-04 00:56 26.95310 -80.37392 26192 ft 367 kts 330°
2026-05-04 00:56 26.97712 -80.38361 26692 ft 370 kts 330°
2026-05-04 00:56 27.00172 -80.39348 27166 ft 373 kts 330°
2026-05-04 00:57 27.02625 -80.40334 27610 ft 377 kts 330°
2026-05-04 00:57 27.05097 -80.41331 28058 ft 380 kts 330°
2026-05-04 00:57 27.07580 -80.42331 28517 ft 383 kts 330°
2026-05-04 00:57 27.10114 -80.43366 28985 ft 384 kts 329°
2026-05-04 00:58 27.12597 -80.44450 29418 ft 385 kts 328°
2026-05-04 00:58 27.15079 -80.45552 29877 ft 386 kts 328°
2026-05-04 00:58 27.17596 -80.46672 30258 ft 389 kts 327°
2026-05-04 00:58 27.20109 -80.47789 30662 ft 391 kts 327°
2026-05-04 00:59 27.22636 -80.48909 31092 ft 391 kts 327°
2026-05-04 00:59 27.25165 -80.50026 31478 ft 393 kts 326°
2026-05-04 00:59 27.27735 -80.51167 31834 ft 395 kts 326°
2026-05-04 00:59 27.30287 -80.52298 32180 ft 398 kts 326°
2026-05-04 01:00 27.32843 -80.53429 32534 ft 399 kts 326°
2026-05-04 01:00 27.35439 -80.54579 32852 ft 402 kts 326°
2026-05-04 01:00 27.38078 -80.55685 33172 ft 406 kts 327°
2026-05-04 01:00 27.40754 -80.56751 33558 ft 408 kts 327°
2026-05-04 01:01 27.43446 -80.57819 33899 ft 410 kts 327°
2026-05-04 01:01 27.46150 -80.58893 34125 ft 415 kts 328°
2026-05-04 01:01 27.48867 -80.59975 34281 ft 421 kts 327°
2026-05-04 01:01 27.51659 -80.61086 34431 ft 428 kts 328°
2026-05-04 01:02 27.54482 -80.62212 34585 ft 434 kts 328°
2026-05-04 01:02 27.57362 -80.63361 34733 ft 440 kts 328°
2026-05-04 01:02 27.60272 -80.64522 34878 ft 445 kts 328°
2026-05-04 01:02 27.63181 -80.65679 35028 ft 451 kts 328°
2026-05-04 01:03 27.66170 -80.66871 35179 ft 458 kts 328°
2026-05-04 01:03 27.69190 -80.68076 35326 ft 464 kts 328°
2026-05-04 01:03 27.72247 -80.69293 35467 ft 469 kts 328°
2026-05-04 01:03 27.75349 -80.70531 35715 ft 472 kts 328°
2026-05-04 01:04 27.78452 -80.71768 36062 ft 473 kts 328°
2026-05-04 01:04 27.81556 -80.73003 36510 ft 471 kts 328°
2026-05-04 01:04 27.84640 -80.74231 36881 ft 471 kts 327°
2026-05-04 01:04 27.87732 -80.75466 37216 ft 471 kts 327°
2026-05-04 01:05 27.90797 -80.76693 37637 ft 469 kts 327°
2026-05-04 01:05 27.93863 -80.77919 38059 ft 467 kts 327°
2026-05-04 01:05 27.96930 -80.79149 38391 ft 467 kts 326°
2026-05-04 01:05 27.99978 -80.80376 38681 ft 467 kts 326°
2026-05-04 01:06 28.03052 -80.81612 39040 ft 465 kts 327°
2026-05-04 01:06 28.09135 -80.84058 39058 ft 462 kts 326°
2026-05-04 01:07 28.15156 -80.86479 39056 ft 457 kts 326°
2026-05-04 01:07 28.21128 -80.88887 39055 ft 456 kts 326°
2026-05-04 01:08 28.27109 -80.91309 39068 ft 457 kts 326°
2026-05-04 01:08 28.33075 -80.93720 39066 ft 458 kts 326°
2026-05-04 01:09 28.39081 -80.96148 39068 ft 456 kts 326°
2026-05-04 01:09 28.45076 -80.98575 39069 ft 456 kts 326°
2026-05-04 01:10 28.51035 -81.00992 39071 ft 456 kts 325°
2026-05-04 01:10 28.57017 -81.03420 39073 ft 455 kts 325°
2026-05-04 01:11 28.62947 -81.05833 39073 ft 457 kts 325°
2026-05-04 01:11 28.68932 -81.08271 39073 ft 456 kts 325°
2026-05-04 01:12 28.74919 -81.10707 39074 ft 456 kts 325°
2026-05-04 01:12 28.80901 -81.13145 39071 ft 455 kts 325°
2026-05-04 01:13 28.86864 -81.15585 39078 ft 459 kts 325°
2026-05-04 01:13 28.92869 -81.18035 39077 ft 456 kts 324°
2026-05-04 01:14 28.98864 -81.20497 39082 ft 460 kts 325°
2026-05-04 01:14 29.04861 -81.22952 39086 ft 458 kts 325°
2026-05-04 01:15 29.10878 -81.25430 39086 ft 459 kts 325°
2026-05-04 01:15 29.16905 -81.27906 39085 ft 458 kts 325°
2026-05-04 01:16 29.22949 -81.30229 39086 ft 466 kts 329°
2026-05-04 01:16 29.29371 -81.31936 39091 ft 482 kts 336°
2026-05-04 01:17 29.36111 -81.32862 39088 ft 494 kts 343°
2026-05-04 01:17 29.43019 -81.33277 39089 ft 498 kts 344°
2026-05-04 01:18 29.49974 -81.33656 39086 ft 500 kts 344°
2026-05-04 01:18 29.56885 -81.34049 39089 ft 497 kts 344°
2026-05-04 01:19 29.63804 -81.34450 39087 ft 496 kts 344°
2026-05-04 01:19 29.70720 -81.34862 39087 ft 495 kts 344°
2026-05-04 01:20 29.77609 -81.35272 39095 ft 498 kts 344°
2026-05-04 01:20 29.84503 -81.35675 39096 ft 496 kts 344°
2026-05-04 01:21 29.91391 -81.36084 39097 ft 494 kts 345°
2026-05-04 01:21 29.98278 -81.36498 39101 ft 497 kts 345°
2026-05-04 01:22 30.05182 -81.36912 39112 ft 495 kts 345°
2026-05-04 01:22 30.12061 -81.37318 39103 ft 496 kts 345°
2026-05-04 01:23 30.18936 -81.37734 39120 ft 495 kts 345°
2026-05-04 01:23 30.25834 -81.38149 39113 ft 494 kts 345°
2026-05-04 01:24 30.32731 -81.38567 39101 ft 495 kts 345°
2026-05-04 01:24 30.39621 -81.38973 39113 ft 497 kts 346°
2026-05-04 01:25 30.46533 -81.39380 39114 ft 495 kts 345°
2026-05-04 01:25 30.53404 -81.39756 39113 ft 498 kts 346°
2026-05-04 01:26 30.60344 -81.40123 39106 ft 496 kts 346°
2026-05-04 01:26 30.67206 -81.40483 39113 ft 494 kts 346°
2026-05-04 01:27 30.74081 -81.40846 39111 ft 496 kts 346°
2026-05-04 01:27 30.80967 -81.41212 39111 ft 496 kts 346°
2026-05-04 01:28 30.87864 -81.41572 39102 ft 494 kts 346°
2026-05-04 01:28 30.94721 -81.41941 39098 ft 495 kts 346°
2026-05-04 01:29 31.01620 -81.42322 39095 ft 495 kts 346°
2026-05-04 01:29 31.08456 -81.42680 39114 ft 494 kts 347°
2026-05-04 01:30 31.15325 -81.43047 39105 ft 494 kts 347°
2026-05-04 01:30 31.22208 -81.43411 39112 ft 493 kts 347°
2026-05-04 01:31 31.29024 -81.43639 39117 ft 494 kts 349°
2026-05-04 01:31 31.35896 -81.43709 39117 ft 493 kts 349°
2026-05-04 01:32 31.42837 -81.43463 39107 ft 501 kts 355°
2026-05-04 01:32 31.49778 -81.42317 39104 ft 512 kts
2026-05-04 01:33 31.56714 -81.40163 39109 ft 522 kts 10°
2026-05-04 01:33 31.63606 -81.37341 39110 ft 522 kts 12°
2026-05-04 01:34 31.70397 -81.34482 39103 ft 520 kts 11°
2026-05-04 01:34 31.77241 -81.31666 39116 ft 520 kts 12°
2026-05-04 01:35 31.84057 -81.28834 39100 ft 519 kts 11°
2026-05-04 01:35 31.90860 -81.26127 39109 ft 515 kts
2026-05-04 01:36 31.97801 -81.24210 39107 ft 506 kts
2026-05-04 01:36 32.04697 -81.23273 39113 ft 494 kts 354°
2026-05-04 01:37 32.11567 -81.22944 39111 ft 493 kts 353°
2026-05-04 01:37 32.18399 -81.22643 39122 ft 492 kts 353°
2026-05-04 01:38 32.25227 -81.22315 39114 ft 493 kts 353°
2026-05-04 01:38 32.32079 -81.21973 39116 ft 492 kts 353°
2026-05-04 01:39 32.38910 -81.21642 39094 ft 494 kts 353°
2026-05-04 01:39 32.42355 -81.21474 38868 ft 495 kts 353°
2026-05-04 01:39 32.45816 -81.21300 38605 ft 495 kts 353°
2026-05-04 01:39 32.49287 -81.21012 38371 ft 499 kts 356°
2026-05-04 01:40 32.52715 -81.20545 38122 ft 500 kts 358°
2026-05-04 01:40 32.56171 -81.20015 37887 ft 501 kts 359°
2026-05-04 01:40 32.59619 -81.19469 37648 ft 502 kts 359°
2026-05-04 01:40 32.63086 -81.18916 37392 ft 500 kts 359°
2026-05-04 01:41 32.66536 -81.18370 37156 ft 501 kts 359°
2026-05-04 01:41 32.69981 -81.17831 36915 ft 501 kts 360°
2026-05-04 01:41 32.73398 -81.17296 36664 ft 501 kts 359°
2026-05-04 01:41 32.76865 -81.16753 36378 ft 501 kts 360°
2026-05-04 01:42 32.80331 -81.16210 36096 ft 502 kts 360°
2026-05-04 01:42 32.83806 -81.15668 35845 ft 502 kts 360°
2026-05-04 01:42 32.87230 -81.15133 35626 ft 503 kts 360°
2026-05-04 01:42 32.90698 -81.14589 35400 ft 503 kts 360°
2026-05-04 01:43 32.94167 -81.14045 35176 ft 504 kts 360°
2026-05-04 01:43 32.97645 -81.13492 34952 ft 506 kts
2026-05-04 01:43 33.01133 -81.12738 34725 ft 510 kts
2026-05-04 01:43 33.04601 -81.11690 34499 ft 516 kts 10°
2026-05-04 01:44 33.08020 -81.10330 34283 ft 518 kts 14°
2026-05-04 01:44 33.11331 -81.08681 34065 ft 520 kts 19°
2026-05-04 01:44 33.14549 -81.06797 33826 ft 519 kts 21°
2026-05-04 01:44 33.17797 -81.04807 33568 ft 518 kts 22°
2026-05-04 01:45 33.20959 -81.02848 33329 ft 515 kts 22°
2026-05-04 01:45 33.24110 -81.00897 33084 ft 511 kts 22°
2026-05-04 01:45 33.30415 -80.97021 32590 ft 506 kts 22°
2026-05-04 01:46 33.33548 -80.95104 32348 ft 503 kts 22°
2026-05-04 01:46 33.36617 -80.93227 32098 ft 500 kts 22°
2026-05-04 01:46 33.39709 -80.91335 31851 ft 497 kts 22°
2026-05-04 01:46 33.42773 -80.89459 31610 ft 493 kts 22°
2026-05-04 01:47 33.45821 -80.87593 31359 ft 491 kts 22°
2026-05-04 01:47 33.48856 -80.85732 31135 ft 488 kts 22°
2026-05-04 01:47 33.51822 -80.83915 30891 ft 483 kts 22°
2026-05-04 01:47 33.54835 -80.82067 30643 ft 481 kts 22°
2026-05-04 01:48 33.57773 -80.80266 30415 ft 479 kts 22°
2026-05-04 01:48 33.60739 -80.78442 30161 ft 476 kts 22°
2026-05-04 01:48 33.63678 -80.76636 29897 ft 474 kts 22°
2026-05-04 01:48 33.66605 -80.74836 29634 ft 471 kts 22°
2026-05-04 01:49 33.69500 -80.73050 29389 ft 468 kts 22°
2026-05-04 01:49 33.72398 -80.71264 29129 ft 465 kts 22°
2026-05-04 01:49 33.75270 -80.69492 28865 ft 463 kts 22°
2026-05-04 01:49 33.78121 -80.67730 28598 ft 460 kts 22°
2026-05-04 01:50 33.80939 -80.65987 28343 ft 458 kts 22°
2026-05-04 01:50 33.83780 -80.64229 28087 ft 454 kts 22°
2026-05-04 01:50 33.86575 -80.62498 27833 ft 451 kts 22°
2026-05-04 01:50 33.89352 -80.60778 27573 ft 448 kts 22°
2026-05-04 01:51 33.92093 -80.59080 27316 ft 446 kts 22°
2026-05-04 01:51 33.94851 -80.57370 27063 ft 444 kts 22°
2026-05-04 01:51 33.97591 -80.55669 26801 ft 441 kts 22°
2026-05-04 01:51 34.00315 -80.53976 26549 ft 440 kts 22°
2026-05-04 01:52 34.03002 -80.52306 26293 ft 437 kts 22°
2026-05-04 01:52 34.05684 -80.50635 26035 ft 435 kts 22°
2026-05-04 01:52 34.08391 -80.48951 25774 ft 433 kts 22°
2026-05-04 01:52 34.11046 -80.47296 25517 ft 431 kts 22°
2026-05-04 01:53 34.13711 -80.45635 25258 ft 429 kts 22°
2026-05-04 01:53 34.16356 -80.43984 25000 ft 426 kts 22°
2026-05-04 01:53 34.18988 -80.42339 24746 ft 424 kts 22°
2026-05-04 01:53 34.21584 -80.40717 24490 ft 422 kts 22°
2026-05-04 01:54 34.24198 -80.39083 24235 ft 420 kts 22°
2026-05-04 01:54 34.26785 -80.37465 23985 ft 418 kts 22°
2026-05-04 01:54 34.29327 -80.35873 23736 ft 416 kts 22°
2026-05-04 01:54 34.31899 -80.34261 23482 ft 413 kts 23°
2026-05-04 01:55 34.34449 -80.32661 23232 ft 412 kts 23°
2026-05-04 01:55 34.37000 -80.31061 23103 ft 410 kts 22°
2026-05-04 01:55 34.39508 -80.29486 23097 ft 411 kts 23°
2026-05-04 01:55 34.42051 -80.27889 23096 ft 412 kts 23°
2026-05-04 01:56 34.44609 -80.26280 23097 ft 412 kts 22°
2026-05-04 01:56 34.47162 -80.24675 23093 ft 412 kts 22°
2026-05-04 01:56 34.49680 -80.23089 23089 ft 409 kts 22°
2026-05-04 01:56 34.52186 -80.21503 23090 ft 396 kts 22°
2026-05-04 01:57 34.54552 -80.20005 23084 ft 382 kts 22°
2026-05-04 01:57 34.56870 -80.18536 23087 ft 369 kts 22°
2026-05-04 01:57 34.59105 -80.17120 23084 ft 356 kts 21°
2026-05-04 01:57 34.61263 -80.15755 23083 ft 343 kts 21°
2026-05-04 01:58 34.63341 -80.14439 23081 ft 330 kts 21°
2026-05-04 01:58 34.65351 -80.13168 23078 ft 318 kts 21°
2026-05-04 01:58 34.67312 -80.11930 22955 ft 318 kts 21°
2026-05-04 01:58 34.69269 -80.10697 22988 ft 321 kts 21°
2026-05-04 01:59 34.71207 -80.09288 23052 ft 330 kts 38°
2026-05-04 01:59 34.72560 -80.07015 23129 ft 342 kts 68°
2026-05-04 01:59 34.72924 -80.04176 23118 ft 343 kts 99°
2026-05-04 01:59 34.72187 -80.01482 23109 ft 332 kts 130°
2026-05-04 02:00 34.70573 -79.99615 23104 ft 313 kts 161°
2026-05-04 02:00 34.68575 -79.98872 23106 ft 296 kts 183°
2026-05-04 02:00 34.66561 -79.98978 23092 ft 281 kts 204°
2026-05-04 02:00 34.64832 -79.99944 23087 ft 269 kts 223°
2026-05-04 02:01 34.63396 -80.01358 23087 ft 266 kts 225°
2026-05-04 02:01 34.61968 -80.02795 23083 ft 266 kts 225°
2026-05-04 02:01 34.60528 -80.04207 23083 ft 266 kts 224°
2026-05-04 02:01 34.59076 -80.05606 23082 ft 267 kts 224°
2026-05-04 02:02 34.57614 -80.06997 23082 ft 268 kts 224°
2026-05-04 02:02 34.56142 -80.08385 23082 ft 268 kts 223°
2026-05-04 02:02 34.54670 -80.09766 23091 ft 268 kts 223°
2026-05-04 02:02 34.53188 -80.11151 23097 ft 268 kts 223°
2026-05-04 02:03 34.51709 -80.12532 23102 ft 268 kts 223°
2026-05-04 02:03 34.50247 -80.13924 23105 ft 266 kts 229°
2026-05-04 02:03 34.49214 -80.15707 23025 ft 260 kts 251°
2026-05-04 02:03 34.48856 -80.17839 23033 ft 261 kts 270°
2026-05-04 02:04 34.49166 -80.20010 23098 ft 267 kts 289°
2026-05-04 02:04 34.50152 -80.21946 23233 ft 282 kts 309°
2026-05-04 02:04 34.51850 -80.23386 23174 ft 317 kts 332°
2026-05-04 02:04 34.54142 -80.23856 22945 ft 355 kts 359°
2026-05-04 02:05 34.56639 -80.22980 22699 ft 397 kts 24°
2026-05-04 02:05 34.58802 -80.20837 22450 ft 416 kts 48°
2026-05-04 02:05 34.60191 -80.17712 22199 ft 423 kts 72°
2026-05-04 02:05 34.60848 -80.14253 21971 ft 423 kts 77°
2026-05-04 02:06 34.61494 -80.10776 21716 ft 421 kts 75°
2026-05-04 02:06 34.62283 -80.07375 21467 ft 419 kts 71°
2026-05-04 02:06 34.63197 -80.04041 21118 ft 417 kts 69°
2026-05-04 02:06 34.64173 -80.00772 20990 ft 416 kts 68°
2026-05-04 02:07 34.65191 -79.97477 21013 ft 418 kts 68°
2026-05-04 02:07 34.66231 -79.94140 21043 ft 419 kts 68°
2026-05-04 02:07 34.67263 -79.90864 21008 ft 419 kts 65°
2026-05-04 02:07 34.68662 -79.87791 20989 ft 416 kts 51°
2026-05-04 02:08 34.70558 -79.85159 20985 ft 411 kts 38°
2026-05-04 02:08 34.72766 -79.83041 20988 ft 407 kts 31°
2026-05-04 02:08 34.75093 -79.81035 20991 ft 407 kts 30°
2026-05-04 02:08 34.77413 -79.79059 20993 ft 407 kts 30°
2026-05-04 02:09 34.79710 -79.77083 20994 ft 407 kts 30°
2026-05-04 02:09 34.82029 -79.75064 20994 ft 407 kts 31°
2026-05-04 02:09 34.84320 -79.73055 21002 ft 407 kts 31°
2026-05-04 02:09 34.86614 -79.71032 21025 ft 408 kts 31°
2026-05-04 02:10 34.88905 -79.69006 21047 ft 408 kts 31°
2026-05-04 02:10 34.91199 -79.66975 21069 ft 408 kts 31°
2026-05-04 02:10 34.93506 -79.64928 21086 ft 408 kts 31°
2026-05-04 02:10 34.95775 -79.62914 21095 ft 408 kts 31°
2026-05-04 02:11 34.98076 -79.60870 21099 ft 408 kts 31°
2026-05-04 02:11 35.00378 -79.58824 21101 ft 408 kts 30°
2026-05-04 02:11 35.02673 -79.56782 21099 ft 408 kts 30°
2026-05-04 02:11 35.04934 -79.54769 21096 ft 408 kts 30°
2026-05-04 02:12 35.07248 -79.52708 21086 ft 408 kts 30°
2026-05-04 02:12 35.09553 -79.50745 21049 ft 404 kts 24°
2026-05-04 02:12 35.12053 -79.49298 20770 ft 396 kts 12°
2026-05-04 02:12 35.14662 -79.48508 20493 ft 382 kts
2026-05-04 02:13 35.17284 -79.48127 20178 ft 376 kts 358°
2026-05-04 02:13 35.19904 -79.47819 19823 ft 374 kts 358°
2026-05-04 02:13 35.22472 -79.47515 19448 ft 371 kts 358°
2026-05-04 02:13 35.25021 -79.47196 18969 ft 368 kts 359°
2026-05-04 02:14 35.27533 -79.46867 18395 ft 365 kts 359°
2026-05-04 02:14 35.30045 -79.46532 17736 ft 360 kts 359°
2026-05-04 02:14 35.32503 -79.46195 16973 ft 356 kts
2026-05-04 02:14 35.34918 -79.45454 16109 ft 362 kts 15°
2026-05-04 02:15 35.37136 -79.43983 15308 ft 364 kts 30°
2026-05-04 02:15 35.39102 -79.42074 14577 ft 358 kts 34°
2026-05-04 02:15 35.40984 -79.40138 14194 ft 358 kts 34°
2026-05-04 02:15 35.42889 -79.38178 13877 ft 358 kts 34°
2026-05-04 02:16 35.44810 -79.36213 13543 ft 355 kts 34°
2026-05-04 02:16 35.46687 -79.34308 13236 ft 353 kts 35°
2026-05-04 02:16 35.48571 -79.32397 12936 ft 351 kts 34°
2026-05-04 02:16 35.50455 -79.30492 12632 ft 350 kts 34°
2026-05-04 02:17 35.52323 -79.28605 12311 ft 347 kts 35°
2026-05-04 02:17 35.54177 -79.26724 11977 ft 344 kts 35°
2026-05-04 02:17 35.55999 -79.24873 11593 ft 341 kts 34°
2026-05-04 02:17 35.57829 -79.23025 11099 ft 338 kts 35°
2026-05-04 02:18 35.59626 -79.21208 10573 ft 337 kts 35°
2026-05-04 02:18 35.61424 -79.19385 10083 ft 332 kts 35°
2026-05-04 02:18 35.63131 -79.17448 9578 ft 332 kts 42°
2026-05-04 02:18 35.64614 -79.15306 9054 ft 330 kts 49°
2026-05-04 02:19 35.65964 -79.13088 8478 ft 327 kts 51°
2026-05-04 02:19 35.67289 -79.10837 8077 ft 316 kts 51°
2026-05-04 02:19 35.68538 -79.08709 7988 ft 296 kts 51°
2026-05-04 02:19 35.69700 -79.06738 7984 ft 277 kts 51°
2026-05-04 02:20 35.70789 -79.04896 7982 ft 258 kts 51°
2026-05-04 02:20 35.71829 -79.03146 7988 ft 252 kts 50°
2026-05-04 02:20 35.72877 -79.01399 8001 ft 252 kts 51°
2026-05-04 02:20 35.73912 -78.99667 7998 ft 252 kts 51°
2026-05-04 02:21 35.74954 -78.97922 7996 ft 252 kts 51°
2026-05-04 02:21 35.75981 -78.96201 7994 ft 252 kts 51°
2026-05-04 02:21 35.77024 -78.94450 7994 ft 252 kts 51°
2026-05-04 02:21 35.78059 -78.92708 7995 ft 252 kts 50°
2026-05-04 02:22 35.79253 -78.91209 7857 ft 244 kts 30°
2026-05-04 02:22 35.80785 -78.90356 7584 ft 240 kts 13°
2026-05-04 02:22 35.82395 -78.89848 7343 ft 239 kts 10°
2026-05-04 02:22 35.84006 -78.89369 7110 ft 238 kts 10°
2026-05-04 02:23 35.85621 -78.88887 6874 ft 237 kts 10°
2026-05-04 02:23 35.87223 -78.88399 6617 ft 236 kts 10°
2026-05-04 02:23 35.88812 -78.87907 6380 ft 236 kts 11°
2026-05-04 02:23 35.90401 -78.87412 6165 ft 235 kts 11°
2026-05-04 02:24 35.91953 -78.86922 6048 ft 229 kts 11°
2026-05-04 02:24 35.93483 -78.86436 5996 ft 222 kts 14°
2026-05-04 02:24 35.94883 -78.85571 5993 ft 228 kts 36°
2026-05-04 02:24 35.96043 -78.84243 6003 ft 231 kts 42°
2026-05-04 02:25 35.97173 -78.82820 6000 ft 231 kts 43°
2026-05-04 02:25 35.98289 -78.81426 5951 ft 228 kts 43°
2026-05-04 02:25 35.99404 -78.80043 5688 ft 228 kts 42°
2026-05-04 02:25 36.00531 -78.78641 5414 ft 229 kts 43°
2026-05-04 02:26 36.01614 -78.77222 5175 ft 227 kts 44°
2026-05-04 02:26 36.02689 -78.75794 4925 ft 227 kts 44°
2026-05-04 02:26 36.03762 -78.74370 4681 ft 226 kts 44°
2026-05-04 02:26 36.04827 -78.72956 4438 ft 225 kts 44°
2026-05-04 02:27 36.05843 -78.71488 4197 ft 226 kts 54°
2026-05-04 02:27 36.06654 -78.69803 3956 ft 226 kts 59°
2026-05-04 02:27 36.07309 -78.68054 3723 ft 225 kts 70°
2026-05-04 02:27 36.07726 -78.66228 3599 ft 220 kts 74°
2026-05-04 02:28 36.08084 -78.64405 3484 ft 213 kts 75°
2026-05-04 02:28 36.08413 -78.62682 3348 ft 205 kts 76°
2026-05-04 02:28 36.08580 -78.60961 3194 ft 199 kts 97°
2026-05-04 02:28 36.07994 -78.59470 3025 ft 192 kts 138°
2026-05-04 02:29 36.06830 -78.58806 2997 ft 179 kts 172°
2026-05-04 02:29 36.05664 -78.58830 2984 ft 160 kts 197°
2026-05-04 02:29 36.04684 -78.59335 2961 ft 142 kts 213°
2026-05-04 02:29 36.03898 -78.60017 2973 ft 138 kts 221°
2026-05-04 02:30 36.03180 -78.60796 2987 ft 138 kts 226°
2026-05-04 02:30 36.02486 -78.61633 2991 ft 138 kts 227°
2026-05-04 02:30 36.01807 -78.62467 2994 ft 138 kts 227°
2026-05-04 02:30 36.01133 -78.63296 2994 ft 138 kts 227°
2026-05-04 02:31 36.00444 -78.64142 2996 ft 138 kts 227°
2026-05-04 02:31 35.99771 -78.64973 2996 ft 138 kts 227°
2026-05-04 02:31 35.99095 -78.65813 2995 ft 138 kts 227°
2026-05-04 02:31 35.98412 -78.66657 2912 ft 139 kts 227°
2026-05-04 02:32 35.97735 -78.67493 2723 ft 137 kts 227°
2026-05-04 02:32 35.97061 -78.68325 2538 ft 137 kts 227°
2026-05-04 02:32 35.96388 -78.69157 2355 ft 136 kts 227°
2026-05-04 02:32 35.95720 -78.69982 2172 ft 136 kts 227°
2026-05-04 02:33 35.95052 -78.70806 1989 ft 136 kts 227°
2026-05-04 02:33 35.94383 -78.71630 1807 ft 135 kts 227°
2026-05-04 02:33 35.93717 -78.72454 1626 ft 135 kts 227°
2026-05-04 02:33 35.93059 -78.73267 1444 ft 135 kts 226°
2026-05-04 02:34 35.92399 -78.74081 1265 ft 134 kts 226°
2026-05-04 02:34 35.91736 -78.74897 1092 ft 134 kts 226°
2026-05-04 02:34 35.91078 -78.75706 915 ft 133 kts 225°
2026-05-04 02:34 35.90424 -78.76512 717 ft 133 kts 225°
2026-05-04 02:35 35.89770 -78.77335 524 ft 132 kts 224°
2026-05-04 02:35 35.89118 -78.78129 405 ft 130 kts 225°
2026-05-04 02:35 35.88571 -78.78803 404 ft 84 kts 225°
2026-05-04 02:35 35.88285 -78.79155 394 ft 32 kts 225°
2026-05-04 02:36 35.88137 -78.79340 389 ft 36 kts 224°
2026-05-04 02:36 35.87983 -78.79473 387 ft 23 kts 179°
2026-05-04 02:36 35.87885 -78.79417 393 ft 7 kts 150°
2026-05-04 02:36 35.87847 -78.79388 395 ft 5 kts 143°
2026-05-04 02:37 35.87826 -78.79366 397 ft 2 kts 136°
2026-05-04 02:37 35.87817 -78.79356 398 ft 0 kts 136°